Regional Weather Roundup
Issued by NWS

Home | Current Version | Previous Version | Graphics & Text | Print | Product List | Glossary On
Versions: 1 2 3 4 5 6 7 8 9 10 11 12 13 14 15 16 17 18 19 20 21 22 23 24 25 26 27 28 29 30 31 32 33 34 35 36 37 38 39 40 41 42 43 44 45 46 47 48 49 50
000
ASUS43 KLOT 302210
RWRIL

ILLINOIS REGIONAL WEATHER ROUNDUP
NATIONAL WEATHER SERVICE CHICAGO/ROMEOVILLE IL
500 PM CDT TUE SEP 30 2014

NOTE: "FAIR" INDICATES FEW OR NO CLOUDS BELOW 12,000 FEET WITH NO
SIGNIFICANT WEATHER AND/OR OBSTRUCTIONS TO VISIBILITY.

* THESE STATIONS ARE NOT UNDER NWS QUALITY CONTROL. THEY ALSO MAY NOT
  REPORT WEATHER SUCH AS PRECIPITATION OR FOG.

ILZ001-002-007-009-015-016-024-302300-
NORTHWEST ILLINOIS

CITY           SKY/WX    TMP DP  RH WIND       PRES   REMARKS
MOLINE         NOT AVBL
SAVANNA*       MOSUNNY   62  45  52 E8        29.98S
$$

ILZ003-004-008-010-011-017-018-302300-
NORTH CENTRAL ILLINOIS

CITY           SKY/WX    TMP DP  RH WIND       PRES   REMARKS
ROCKFORD       PTSUNNY   59  44  57 E10       30.02S
FREEPORT*      PTSUNNY   56  44  65 E3        30.02S
ROCHELLE*      PTSUNNY   60  45  57 E12       30.00S
DE KALB*       PTSUNNY   54  44  69 E9        30.01S
PERU*          PTSUNNY   63  47  55 E8        29.98S
$$

ILZ005-006-012>014-019>023-302300-
NORTHEAST ILLINOIS

CITY           SKY/WX    TMP DP  RH WIND       PRES   REMARKS
CHICAGO-OHARE  CLOUDY    55  46  71 N7        30.01R
CHICAGO-MIDWAY PTSUNNY   59  48  67 NE12      30.00S
AURORA         PTSUNNY   57  45  64 NE9       30.00F
LANSING*       CLOUDY    56  48  76 N6        30.00R
JOLIET*        MOSUNNY   56  47  70 NE8       30.00S
WAUKEGAN       NOT AVBL
DUPAGE AIRPORT CLOUDY    57  46  66 NE9       30.00S
KANKAKEE*      MOSUNNY   59  49  68 NE9       30.00R
WHEELING       CLOUDY    55  48  77 NE6G17    30.01F
MORRIS*        PTSUNNY   59  49  67 E7        29.98S
ROMEOVILLE*    CLOUDY    56  46  68 NE8       30.01R
NORTHERLY ISL    N/A     55  49  80 NE12        N/A
$$

LMZ740>746-302300-
SOUTHERN LAKE MICHIGAN

STATION/POSITION SKY/WX   TEMP    WIND        PRES    VSBY  WAVE
                          AIR SEA DIR/SP/G                  HT/PER
                          (F)     (DEG/KT/KT) (MB)    (MI)  (FT/S)
SOUTHERN BUOY              54 62   20/ 14/ 16 1016.5R         4/ 7
WAUKEGAN HARBOR            53      20/ 18/ 20   N/A
HARRISON CRIB              54      10/ 16/ 20   N/A
BURNHAM HARBOR             55      10/ 13/ 16   N/A
CALUMET HARBOR             56      20/  8/ 13 1014.9R
MICHIGAN CITY              54     360/ 14/ 16   N/A
MICHIGAN CITY 6N           55 65   20/ 10/ 16   N/A           5/ 2
ST. JOSEPH                 55 62   20/  8/ 12   N/A           4/ 2
$$

ILZ025>027-034>036-040-047-049-050-058-095>099-302300-
WEST-CENTRAL ILLINOIS

CITY           SKY/WX    TMP DP  RH WIND       PRES   REMARKS
QUINCY         SUNNY     74  60  61 E9        29.89F
GALESBURG*     SUNNY     68  55  63 E7        29.93F
MACOMB*        SUNNY     70  56  61 SE6       29.94F
JACKSONVILLE*  SUNNY     78  60  54 NE6       29.92S
PITTSFIELD*    SUNNY     77  60  56 NE6       29.91S
$$

ILZ028>032-037-038-041>044-048-051>054-059>061-302300-
CENTRAL ILLINOIS

CITY           SKY/WX    TMP DP  RH WIND       PRES   REMARKS
PONTIAC        PTSUNNY   64  48  55 NE8       29.97S
BLOOMINGTON    SUNNY     70  55  58 NE9         N/A
DECATUR        MOSUNNY   74  58  57 NE8       29.93S
PEORIA         PTSUNNY   70  54  56 NE10      29.94F
LACON*         PTSUNNY   66  49  53 NE7       29.95S
LINCOLN*       MOSUNNY   74  55  52 NE5       29.90S
SPRINGFIELD    SUNNY     76  59  55 E3        29.92F
TAYLORVILLE    SUNNY     77  57  50 NE6       29.92S
$$

ILZ033-039-045-046-055>057-062-063-302300-
EAST-CENTRAL ILLINOIS

CITY           SKY/WX    TMP DP  RH WIND       PRES   REMARKS
DANVILLE*      PTSUNNY   67  50  53 N10       29.93S
RANTOUL*       PTSUNNY   69  49  48 NE7       29.95F
MATTOON        MOSUNNY   74  56  53 NE8       29.91F
PARIS*         PTSUNNY   71  57  60 N5        29.94S
$$

ILZ079-100>102-302300-
SOUTHWEST ILLINOIS

CITY           SKY/WX    TMP DP  RH WIND       PRES   REMARKS
ALTON          PTSUNNY   81  52  36 CALM      29.88F HX  80
BELLEVILLE     PTSUNNY   85  55  35 E7        29.87S HX  84
CAHOKIA*       SUNNY     85  53  33 CALM      29.87F HX  83
SPARTA*        SUNNY     83  53  35 CALM      29.88F HX  82
$$

ILZ064>066-069>071-074>076-080>082-084>086-088>090-092>094-302300-
SOUTH-CENTRAL ILLINOIS

CITY           SKY/WX    TMP DP  RH WIND       PRES   REMARKS
CARBONDALE     MOSUNNY   84  56  38 SE5       29.87F HX  83
CAIRO*         SUNNY     87  52  30 CALM      29.88S HX  84
EFFINGHAM*     SUNNY     78  55  43 CALM      29.90F
MARION         MOSUNNY   86  54  32 N5        29.89F HX  84
CENTRALIA*     SUNNY     82  55  39 NE6       29.89F HX  82
SALEM*         SUNNY     82  62  51 N5        29.90S HX  82
METROPOLIS*    SUNNY     85  52  31 SW3       29.87F HX  83
$$

ILZ067-068-072-073-078-083-087-091-302300-
SOUTHEAST ILLINOIS

CITY           SKY/WX    TMP DP  RH WIND       PRES   REMARKS
LAWRENCEVILLE  SUNNY     79  61  53 N8        29.90F HX  80
FLORA*         SUNNY     81  55  41 NE5       29.90F HAZE    HX  80
FAIRFIELD*     SUNNY     82  61  47 N5        29.89S HX  83
HARRISBURG*    SUNNY     83  53  35 W3        29.89F HX  82
ROBINSON*      SUNNY     78  63  61 NE6       29.91S
CARMI*         SUNNY     85  56  36 N5        29.88S HX  84
$$

ABBREVIATIONS USED IN REMARKS
   TC - TEMPERATURE IN CELSIUS
  WCI - WIND CHILL INDEX
   HX - HEAT INDEX
  VSB - VISIBILITY
$$



USA.gov is the U.S. government's official web portal to all federal, state and local government web resources and services.